Tracking 31027 objects as of 19-Jul-2025
HD Live streaming from Space Station
objects crossing your sky now

DELTA 1 DEB

Track DELTA 1 DEB now!
10-day predictions


NORAD ID: 10730
Int'l Code: 1975-027E
Perigee: 851.0 km
Apogee: 988.4 km
Inclination: 115.0 °
Period: 103.3 minutes
Semi major axis: 7290 km
RCS: 2.1029 m2 (large)
Launch date: April 9, 1975
Source: United States (US)
Launch site: AIR FORCE WESTERN TEST RANGE (AFWTR)

Note: This is SATELLITE DEBRIS
Your satellite tracking list
EKRAN 2 DEB
Track 1 satellite(s)




NASA's NSSDC Master Catalog

Two Line Element Set (TLE):
1 10730U 75027E   25199.73782474  .00000225  00000-0  28007-3 0  9999
2 10730 114.9784 208.4963 0094233  17.7793 342.6537 13.94603297557926
Source of the keplerian elements: AFSPC